TimeEDT,TemperatureF,Dew PointF,Humidity,Sea Level PressureIn,VisibilityMPH,Wind Direction,Wind SpeedMPH,Gust SpeedMPH,PrecipitationIn,Events,Conditions,WindDirDegrees,DateUTC
12:53 AM,35.1,33.1,92,30.34,10.0,Calm,Calm,-,N/A,,Clear,0,2013-10-30 04:53:00
1:53 AM,34.0,32.0,92,30.33,10.0,NW,3.5,-,N/A,,Clear,320,2013-10-30 05:53:00
2:53 AM,35.1,33.1,92,30.32,10.0,Calm,Calm,-,N/A,,Partly Cloudy,0,2013-10-30 06:53:00
3:53 AM,37.0,33.1,86,30.30,10.0,Calm,Calm,-,N/A,,Scattered Clouds,0,2013-10-30 07:53:00
4:53 AM,37.9,35.1,89,30.28,10.0,Calm,Calm,-,N/A,,Overcast,0,2013-10-30 08:53:00
5:35 AM,39.2,35.6,87,30.27,10.0,Calm,Calm,-,N/A,,Overcast,0,2013-10-30 09:35:00
5:53 AM,39.0,35.1,86,30.28,10.0,Calm,Calm,-,N/A,,Mostly Cloudy,0,2013-10-30 09:53:00
6:02 AM,39.2,35.6,87,30.28,10.0,Calm,Calm,-,N/A,,Scattered Clouds,0,2013-10-30 10:02:00
6:13 AM,39.2,35.6,87,30.28,10.0,NW,3.5,-,N/A,,Mostly Cloudy,310,2013-10-30 10:13:00
6:53 AM,39.9,35.1,83,30.29,10.0,Calm,Calm,-,N/A,,Mostly Cloudy,0,2013-10-30 10:53:00
7:05 AM,39.2,35.6,87,30.28,10.0,Calm,Calm,-,N/A,,Scattered Clouds,0,2013-10-30 11:05:00
7:53 AM,39.9,36.0,86,30.29,10.0,Calm,Calm,-,N/A,,Mostly Cloudy,0,2013-10-30 11:53:00
8:53 AM,42.1,37.0,82,30.29,10.0,Calm,Calm,-,N/A,,Overcast,0,2013-10-30 12:53:00
9:53 AM,46.0,37.9,73,30.29,10.0,Calm,Calm,-,N/A,,Overcast,0,2013-10-30 13:53:00
10:25 AM,48.2,37.4,66,30.28,10.0,Calm,Calm,-,N/A,,Unknown,0,2013-10-30 14:25:00
10:53 AM,48.9,37.9,66,30.28,10.0,Calm,Calm,-,N/A,,Overcast,0,2013-10-30 14:53:00
11:29 AM,51.8,39.2,62,30.27,10.0,Calm,Calm,-,N/A,,Overcast,0,2013-10-30 15:29:00
11:53 AM,53.1,41.0,64,30.27,10.0,Calm,Calm,-,N/A,,Overcast,0,2013-10-30 15:53:00
12:19 PM,55.4,42.8,63,30.25,10.0,Calm,Calm,-,N/A,,Overcast,0,2013-10-30 16:19:00
12:53 PM,55.9,44.1,64,30.25,10.0,Calm,Calm,-,N/A,,Overcast,0,2013-10-30 16:53:00
1:33 PM,57.2,46.4,67,30.22,10.0,Variable,3.5,-,N/A,,Overcast,0,2013-10-30 17:33:00
1:53 PM,57.9,46.0,65,30.22,10.0,Calm,Calm,-,N/A,,Overcast,0,2013-10-30 17:53:00
2:53 PM,57.9,48.0,70,30.19,10.0,Calm,Calm,-,N/A,,Overcast,0,2013-10-30 18:53:00
3:13 PM,57.2,48.2,72,30.18,10.0,Calm,Calm,-,N/A,,Overcast,0,2013-10-30 19:13:00
3:53 PM,59.0,46.9,64,30.19,10.0,Calm,Calm,-,N/A,,Overcast,0,2013-10-30 19:53:00
4:05 PM,59.0,46.4,63,30.18,10.0,Calm,Calm,-,N/A,,Overcast,0,2013-10-30 20:05:00
4:53 PM,59.0,48.9,69,30.18,9.0,South,4.6,-,N/A,,Overcast,180,2013-10-30 20:53:00
5:53 PM,55.9,48.9,77,30.19,10.0,Calm,Calm,-,N/A,,Overcast,0,2013-10-30 21:53:00
6:53 PM,51.1,46.9,86,30.19,9.0,Calm,Calm,-,N/A,,Overcast,0,2013-10-30 22:53:00
7:53 PM,48.9,46.9,93,30.21,8.0,Calm,Calm,-,N/A,,Overcast,0,2013-10-30 23:53:00
8:39 PM,50.0,46.4,87,30.21,10.0,Calm,Calm,-,N/A,,Overcast,0,2013-10-31 00:39:00
8:53 PM,50.0,46.9,89,30.22,10.0,Calm,Calm,-,N/A,,Overcast,0,2013-10-31 00:53:00
9:53 PM,51.1,48.0,89,30.23,8.0,Calm,Calm,-,N/A,,Overcast,0,2013-10-31 01:53:00
10:53 PM,51.1,48.0,89,30.22,10.0,Calm,Calm,-,N/A,,Overcast,0,2013-10-31 02:53:00
11:53 PM,48.9,46.9,93,30.22,7.0,Calm,Calm,-,N/A,,Mostly Cloudy,0,2013-10-31 03:53:00